Location: La Silve
(44.2414°N, 5.8889°E)
Time: 04:58:57
(UTC+00:00)

CENTAUR R/B - Pass Details

Date: 01 December 2020
Orbit: 750 x 1438 km, 63.4° (Epoch: 11 January)

Event Time Altitude Azimuth Distance (km) Brightness Sun altitude
Rises 17:58:59 0° 195° (SSW) 3,338 5.6 -20.9°
Reaches altitude 10° 18:01:21 10° 189° (S) 2,476 4.9 -21.3°
Maximum altitude 18:06:48 47° 117° (ESE) 1,232 2.7 -22.3°
Enters shadow 18:07:44 44° 91° (E) 1,308 2.7 -22.4°
